Regional Weather Roundup
Issued by NWS

Home | Current Version | Previous Version | Graphics & Text | Print | Product List | Glossary On
Versions: 1 2 3 4 5 6 7 8 9 10 11 12 13 14 15 16 17 18 19 20 21 22 23 24 25 26 27 28 29 30 31 32 33 34 35 36 37 38 39 40 41 42 43 44 45 46 47 48 49 50
000
ASUS43 KBIS 261010
RWRND

NORTH DAKOTA REGIONAL WEATHER ROUNDUP
NATIONAL WEATHER SERVICE BISMARCK ND
500 AM CDT FRI MAY 26 2017

NOTE: "FAIR" INDICATES FEW OR NO CLOUDS BELOW 12,000 FEET WITH NO
SIGNIFICANT WEATHER AND/OR OBSTRUCTIONS TO VISIBILITY.


NDZ001>003-009>011-017-261100-
NORTHWEST NORTH DAKOTA

CITY           SKY/WX    TMP DP  RH WIND       PRES   REMARKS
WILLISTON      CLOUDY    51  41  68 W15       29.69R
MINOT          FAIR      50  43  77 W16       29.60S
MINOT AFB      CLEAR     48  44  85 W14       29.59S
$$

NDZ018>021-031>035-040>046-261100-
SOUTHWEST NORTH DAKOTA

CITY           SKY/WX    TMP DP  RH WIND       PRES   REMARKS
BISMARCK       FAIR      49  42  77 W9        29.70R
DICKINSON      CLOUDY    48  36  63 W17       29.71R
GARRISON         N/A     47  41  80 W14       29.64S
HETTINGER ARPT PTCLDY    45  37  73 W18       29.77R
$$

NDZ004>008-012>016-024-026-027-054-261100-
NORTHEAST NORTH DAKOTA

CITY           SKY/WX    TMP DP  RH WIND       PRES   REMARKS
GRAND FORKS    CLEAR     46  44  93 SW7       29.58R
GRND FRKS AFB  CLEAR     48  44  85 W8        29.59R
DEVILS LAKE    FAIR      50  45  83 SW8       29.60S
$$

NDZ022-023-025-028>030-036>039-047>053-261100-
SOUTHEAST NORTH DAKOTA

CITY           SKY/WX    TMP DP  RH WIND       PRES   REMARKS
FARGO          PTCLDY    49  48  97 SW6       29.62R
JAMESTOWN      FAIR      50  44  80 W8        29.64R
$$





USA.gov is the U.S. government's official web portal to all federal, state and local government web resources and services.